Location: Poinsettia Observatory
(32.9673°N, 117.0346°W)
Time: 00:20:18
(UTC-07:00)

Daily predictions for brighter satellites

Satellite Brightness Start Highest point End
(mag) Time Altitude Azimuth Time Altitude Azimuth Time Altitude Azimuth
Cosmos 2360 Rocket 3.3 00:11:29 10° N 00:15:18 40° NNE 00:15:18 40° NNE
COSMOS 2428 4.3 00:23:25 10° N 00:27:34 29° NE 00:27:34 29° NE
Cosmos 2322 Rocket 3.8 00:25:27 10° NW 00:28:22 27° WNW 00:28:22 27° WNW
CZ-2C R/B 3.9 00:35:07 10° N 00:38:53 38° NNW 00:38:53 38° NNW
SeaSat 1 4.1 00:47:03 30° NNW 00:47:03 30° NNW 00:49:35 10° NNW
Lacrosse 5 rocket 4.4 00:41:08 10° NW 00:41:40 13° NW 00:41:40 13° NW
Cosmos 2297 Rocket 4.3 00:57:56 18° ENE 00:57:56 18° ENE 00:59:55 10° NE
USA 267 4.3 00:52:23 10° NNE 00:58:21 40° NW 00:59:58 34° WNW
Cosmos 2219 Rocket 3.7 00:53:42 10° N 00:58:04 30° NE 00:58:04 30° NE
Cosmos 2333 Rocket 3.9 00:55:27 10° N 01:00:01 25° ENE 01:00:01 25° ENE
Cosmos 2237 Rocket 3.8 01:16:53 10° N 01:21:34 26° ENE 01:21:49 26° ENE
USA 234 4.4 01:24:14 13° E 01:29:32 38° NE 01:35:27 10° NNW
Cosmos 2227 Rocket 3.2 01:35:24 43° NE 01:35:24 43° NE 01:39:13 10° NNE
Cosmos 1725 Rocket 4.4 01:35:48 10° N 01:40:51 59° NNW 01:40:51 59° NNW
ATLAS 2AS CENTAUR R/B 2.8 01:42:00 10° NNW 01:49:53 87° NNE 01:49:53 87° NNE
DELTA 2 R/B (1) 4.4 01:56:33 46° NE 01:56:33 46° NE 02:00:42 10° ENE
Cosmos 2082 4.2 02:07:51 54° N 02:07:51 54° N 02:12:15 10° NNE
CZ-3B DEB 4.1 02:04:02 55° SSW 02:08:03 81° SE 02:22:40 10° NE
IRS-P3 4.5 02:16:40 10° NNE 02:21:12 61° NE 02:21:12 61° NE
SL-08 R/B 4.2 02:26:31 48° ENE 02:26:31 48° ENE 02:31:10 10° N
CBERS-1 4.3 02:27:20 10° NNE 02:31:45 64° NE 02:31:45 64° NE
AQUA 4.5 02:28:41 10° NNE 02:32:28 53° NE 02:32:28 53° NE
VEP-3 4.1 02:14:47 10° W 02:38:54 29° SE 02:41:32 10° SE
Cosmos 1570 Rocket 4.2 02:30:14 10° N 02:35:21 67° NE 02:35:21 67° NE
ARIANE 5 R/B 3.6 02:33:54 10° NNE 02:38:27 33° E 02:38:45 33° ESE
Cosmos 2297 Rocket 3.1 02:39:44 38° NW 02:39:44 38° NW 02:44:35 10° N
Cosmos 2219 Rocket 3.9 02:37:38 10° NW 02:39:45 20° WNW 02:39:45 20° WNW
Meteor 1-27 4.4 02:36:50 10° NNW 02:42:05 65° WNW 02:42:05 65° WNW
Cosmos 2333 Rocket 3.6 02:39:14 10° NW 02:41:58 25° WNW 02:41:58 25° WNW
Lacrosse 4 Rocket 2.5 02:49:19 41° N 02:49:19 41° N 02:52:10 10° NNE
SL-16 R/B 3.2 02:45:50 25° SE 02:49:10 49° ENE 02:55:06 10° N
NPP 3.7 02:45:19 10° N 02:50:23 64° NW 02:50:23 64° NW
Cosmos 1707 Rocket 4.3 02:48:00 10° N 02:52:05 50° ENE 02:52:05 50° ENE
ATLAS 5 CENTAUR R/B 3.3 02:54:45 24° ESE 02:54:51 24° ESE 02:58:40 10° ENE
Resurs 1-4 Rocket 2.4 02:50:17 10° NNE 02:55:32 58° E 02:56:09 54° SE
ATLAS 3B CENTAUR R/B 3.8 02:35:36 10° W 02:57:12 68° SSW 03:04:29 10° ESE
Cosmos 1666 Rocket 3.8 03:02:48 68° NNE 03:02:48 68° NNE 03:06:43 10° N
Cosmos 2034 Rocket 4.0 02:55:54 10° N 03:02:18 84° E 03:04:08 50° SSE
CZ-3A R/B 3.3 03:03:52 37° SSE 03:03:52 37° SSE 03:18:00 10° E
Cosmos 2237 Rocket 3.5 03:00:34 10° NW 03:03:36 27° WNW 03:03:36 27° WNW
SL-16 R/B 2.1 03:03:26 10° NNW 03:09:08 87° WSW 03:10:22 57° SSE
CBERS 1 LM4 rocket 4.4 03:05:18 10° NNE 03:10:42 88° ESE 03:11:22 69° S
UNKNOWN OBJECT B 4.1 03:08:35 10° NNE 03:12:09 32° E 03:12:32 31° ESE
USA 234 3.2 03:11:27 51° SSW 03:12:18 55° SW 03:18:42 10° NW
ADEOS Rocket 3.5 03:04:50 10° N 03:12:31 81° WNW 03:15:24 44° SSW
Cosmos 2227 4.2 03:13:16 61° S 03:14:20 84° ESE 03:20:07 10° NNE
Cosmos 468 Rocket 4.3 03:09:30 10° N 03:14:38 63° ENE 03:17:05 30° SE
Cosmos 2227 Rocket 4.2 03:17:12 14° WNW 03:18:08 14° NW 03:21:06 10° NNW
Tsikada Rocket 4.0 03:17:30 52° SSW 03:19:07 75° W 03:25:34 10° N
OAO 3 Rocket 3.1 03:19:04 74° S 03:19:10 74° SSE 03:24:07 10° ENE
Spot 4 Rocket 4.0 03:17:04 10° N 03:22:10 67° WNW 03:22:49 60° WSW
UNK 3.6 03:23:28 69° S 03:24:00 85° WSW 03:28:38 10° NNW
CZ-2D R/B 2.0 03:19:07 10° N 03:24:21 74° WNW 03:25:19 58° SW
BREEZE-M R/B 4.0 03:23:04 40° WSW 03:26:05 76° NW 03:30:35 10° NE
CZ-2D R/B 4.1 03:27:00 10° NNE 03:31:01 49° E 03:32:07 38° SE
Cosmos 1763 Rocket 4.4 03:26:41 10° N 03:31:43 47° ENE 03:36:38 10° SE
MOS 1 Rocket 4.1 03:26:52 10° NNE 03:32:05 56° E 03:34:50 28° SSE
Cosmos 2263 Rocket 3.3 03:30:18 21° SSE 03:33:18 37° ESE 03:38:21 10° NE
IRS-1D 3.8 03:31:44 10° N 03:36:54 53° WNW 03:38:02 45° WSW
Cosmos 1455 4.3 03:33:50 10° NW 03:35:09 17° NW 03:35:09 17° NW
Atlas Centaur 2 4.2 03:35:34 22° S 03:38:19 26° SSE 03:45:02 10° E
Meteosat 1 Rocket2 3.5 03:38:36 45° S 03:38:36 45° S 03:42:32 10° ESE
Sich 1 4.0 03:41:22 31° WNW 03:41:22 31° WNW 03:45:00 10° NNW
Cosmos 1814 Rocket 4.1 03:36:21 10° NNW 03:41:44 82° ENE 03:46:35 13° SSE
NOSS 3-4 (A) 3.8 03:34:36 10° NNW 03:41:48 82° WSW 03:49:27 10° SSE
Cosmos 1503 Rocket 4.5 03:39:17 29° S 03:41:50 57° ESE 03:46:59 10° NNE
NOSS 3-4 (C) 3.8 03:34:42 10° NNW 03:41:55 83° WSW 03:49:33 10° SSE
MOZ.5/SAFIR/RUBIN 5/SL-8 4.3 03:38:41 14° SSE 03:42:43 59° ENE 03:47:25 10° N
Cosmos 1633 Rocket 3.8 03:44:27 35° WNW 03:44:27 35° WNW 03:48:24 10° NNW
Cosmos 1470 Rocket 3.4 03:46:10 53° SSW 03:47:04 73° W 03:51:24 10° N
In-Cosmos 22 Rocket 4.1 03:45:36 29° S 03:48:24 77° E 03:53:42 10° N
Cosmos 220 Rocket 4.3 03:50:19 46° WSW 03:51:10 54° WNW 03:55:32 10° N
CZ-3 R/B 4.1 02:55:15 10° W 03:52:54 76° SSW 04:04:14 10° ESE
Okean O Rocket 3.7 03:52:13 10° NE 03:55:43 23° E 03:59:12 10° SSE
SEDSat Delta rocket 4.3 03:53:44 32° SSW 03:56:06 47° SSE 04:02:27 10° E
GP-B 4.2 03:53:53 10° NNE 03:58:06 42° E 04:02:17 10° SSE
SL-24 R/B 3.9 03:55:08 10° NNE 03:58:48 64° E 04:00:26 30° S
Cosmos 1933 3.2 03:57:21 10° N 04:01:29 86° W 04:03:54 24° S
Cosmos 2285 Rocket 4.4 03:56:34 10° N 04:02:49 65° ENE 04:09:05 10° SSE
Cosmos 1400 Rocket 2.7 04:04:18 39° SSW 04:05:37 68° W 04:09:34 10° N
Cosmos 1634 Rocket 3.9 03:59:40 10° N 04:05:50 78° W 04:11:59 10° S
Cosmos 1354 Rocket 4.0 04:05:39 27° SSW 04:08:35 77° WNW 04:13:53 10° NNE
Cosmos 371 Rocket 3.3 04:08:21 10° NNW 04:13:04 58° WSW 04:17:40 10° S
Cosmos 2084 4.3 04:11:37 19° S 04:14:07 40° ESE 04:17:47 10° NE
ARIANE 5 R/B 3.9 04:13:29 10° NNW 04:17:19 22° WNW 04:19:05 18° W
USA 161 1.4 04:19:13 39° NNW 04:19:13 39° NNW 04:20:35 10° NNW
Meteor 1-26 Rocket 4.2 04:19:26 10° N 04:25:09 87° W 04:30:43 10° S
Cosmos 1603 3.9 04:26:53 10° NNW 04:32:19 47° WSW 04:37:41 10° S
SL-16 R/B 3.7 04:30:56 18° WSW 04:32:59 21° W 04:37:28 10° NW
Cosmos 968 Rocket 4.2 04:28:52 10° S 04:33:50 52° ESE 04:38:52 10° NNE
Resurs 1-4 Rocket 4.0 04:31:56 10° NNW 04:34:49 15° WNW 04:37:14 11° W
ADEOS II 2.1 04:32:32 10° NNE 04:37:49 85° ESE 04:43:04 10° SSW
ATLAS 5 CENTAUR R/B 2.9 04:36:18 16° WSW 04:39:17 30° NW 04:43:39 10° N
Cosmos 304 Rocket 3.9 04:36:22 10° NNW 04:41:11 77° ENE 04:45:57 10° SSE
RESURS DK-1 2.8 04:38:40 10° NNW 04:42:49 67° ENE 04:46:56 10° SSE
Cosmos 1867 4.4 04:41:11 15° WSW 04:45:08 36° NW 04:50:08 10° N
Cosmos 841 Rocket 4.0 04:41:07 10° NNW 04:46:00 39° W 04:50:50 10° SSW
PSLV R/B 4.0 04:43:42 10° N 04:47:34 55° WNW 04:51:19 10° SSW
Cosmos 2221 Rocket 3.8 04:43:40 10° N 04:48:13 80° E 04:52:42 10° S
Abrixas rocket 3.7 04:49:42 11° W 04:52:22 28° NNW 04:55:18 10° NNE
IRS-1C Rocket 4.1 04:47:47 10° NNE 04:53:05 88° ESE 04:58:21 10° SSW
CZ-4B R/B 3.2 04:51:21 10° NNE 04:56:43 86° WNW 05:02:09 10° SSW
CZ-4B R/B 3.2 04:55:02 10° N 04:59:11 51° WNW 05:03:08 10° SSW
BREEZE-M DEB (TANK) 3.9 04:58:11 10° S 05:00:16 24° ESE 05:04:13 10° ENE
OAO 3 Rocket 3.5 04:57:52 10° W 05:02:50 69° N 05:07:45 10° E
Cosmos 1315 Rocket 4.1 05:00:36 10° SW 05:03:54 24° WNW 05:07:13 10° NNW
Centaur D AC-25 4.1 04:42:25 10° WSW 05:04:11 56° S 05:09:03 10° E
Cosmos 1892 4.5 05:07:56 10° WSW 05:10:19 16° WNW 05:12:44 10° NW
Cosmos 1703 Rocket 4.4 05:11:52 10° NNW 05:15:47 31° W 05:19:41 10° SSW
CZ-2C R/B 3.9 05:11:14 10° SSE 05:15:53 86° E 05:20:38 10° NNW
Cosmos 1943 3.6 05:12:02 10° NW 05:17:14 40° WSW 05:22:27 10° S
Cosmos 2263 Rocket 3.5 05:12:47 10° WSW 05:17:15 24° WNW 05:21:44 10° N
